User: anonymous   Login
Location: Unspecified
(0.0000°N, 0.0000°E)
Time: 12:28:00
(UTC+00:00)
Language:

Explorer 11/Cluster Stage 4 - Orbit

View from above orbital plane
View from above orbital plane
View from above satellite
View from above satellite

Ground track
Ground track

The orbit data is extracted from the following two-line orbital elements,

1   107U 61013A   19047.19943945 +.00000633 +00000-0 +65008-4 0  9999
2   107 028.7910 052.8266 0547467 322.6918 033.6801 14.08728742897457
Epoch (UTC): 16 February 2019 04:47:11
Eccentricity: 0.0547467
inclination: 28.7910°
perigee height: 467 km
apogee height: 1260 km
right ascension of ascending node: 52.8266°
argument of perigee: 322.6918°
revolutions per day: 14.08728742
mean anomaly at epoch: 33.6801°
orbit number at epoch: 89745

The dashed part of the orbit path shows where the satellite is in the earth's shadow,  

DLR